Iowa Falls, IA

8:19 PM CST on December 15, 2019 (GMT -0600)
Iowa Falls Municipal

Weather History for KIFA - November, 2019

Change the Weather History Date:

Tuesday, November 12, 2019

  Actual Average Record
Temperature  
Mean Temperature 7 °F -  
Max Temperature 16 °F 43 °F 66 °F (1952)
Min Temperature -2 °F 25 °F 3 °F (1966)
Degree Days  
Heating Degree Days 58    
Moisture  
Dew Point -1 °F    
Average Humidity 63    
Maximum Humidity 76    
Minimum Humidity 46    
Precipitation  
Precipitation 0.00 in - - ()
Sea Level Pressure  
Sea Level Pressure 30.42 in    
Wind  
Wind Speed 8 mph ()    
Max Wind Speed 22 mph    
Max Gust Speed 25 mph    
Visibility 10.0 miles    
Events      
Averages and records for this station are not official NWS values.
T = Trace of Precipitation, MM = Missing Value Source: Averaged Metar Reports

Daily Weather History Graph

Daily Weather History Graph

Search for Another Location

Airport or City:

Astronomy

Nov. 12, 2019 Rise Set
Actual Time 7:00 AM CST 4:53 PM CST
Civil Twilight 6:30 AM CST 5:23 PM CST
Nautical Twilight 5:56 AM CST 5:57 PM CST
Astronomical Twilight 5:23 AM CST 6:30 PM CST
Moon 5:21 PM CST (11/12) 6:51 AM CST (11/12)
Length of Visible Light 10h 53m
Length of Day
9h 53m
Full, 100% of the Moon is Illuminated
Nov 12
Full
Nov 19
Last Quarter
Nov 26
New
Dec 4
First Quarter
Dec 11
Full

Hourly Weather History & Observations

Time (CST) Temp. Windchill Dew Point Humidity Pressure Visibility Wind Dir Wind Speed Gust Speed Precip Events Conditions
12:15 AM 6.6 °F -6.1 °F -2.0 °F 68% 30.60 in 10.0 mi NW 8.1 mph - N/A   Clear
12:35 AM 6.4 °F -7.3 °F -1.8 °F 69% 30.60 in 10.0 mi NW 9.2 mph - N/A   Clear
12:55 AM 5.9 °F -8.0 °F -2.2 °F 69% 30.60 in 10.0 mi NW 9.2 mph - N/A   Clear
1:15 AM 5.5 °F -8.4 °F -2.2 °F 70% 30.60 in 10.0 mi NW 9.2 mph - N/A   Clear
1:35 AM 5.4 °F -8.6 °F -2.2 °F 71% 30.60 in 10.0 mi NW 9.2 mph - N/A   Clear
1:55 AM 4.8 °F -8.3 °F -2.2 °F 73% 30.60 in 10.0 mi NW 8.1 mph - N/A   Clear
2:15 AM 4.1 °F -9.2 °F -2.4 °F 75% 30.60 in 10.0 mi NW 8.1 mph - N/A   Clear
2:35 AM 4.1 °F -8.0 °F -2.6 °F 74% 30.60 in 10.0 mi NW 6.9 mph - N/A   Clear
2:55 AM 3.6 °F -8.7 °F -3.1 °F 74% 30.59 in 10.0 mi NW 6.9 mph - N/A   Clear
3:35 AM 2.8 °F -8.2 °F -3.6 °F 74% 30.58 in 10.0 mi WNW 5.8 mph - N/A   Clear
3:55 AM 0.5 °F -11.0 °F -5.8 °F 75% 30.59 in 10.0 mi WNW 5.8 mph - N/A   Clear
4:15 AM -0.0 °F -13.0 °F -6.0 °F 76% 30.59 in 10.0 mi WNW 6.9 mph - N/A   Clear
4:35 AM -0.2 °F -10.1 °F -6.2 °F 76% 30.59 in 10.0 mi WNW 4.6 mph - N/A   Clear
4:55 AM 0.3 °F - -5.6 °F 76% 30.58 in 10.0 mi Calm Calm - N/A   Clear
5:15 AM -0.4 °F -10.4 °F -6.3 °F 76% 30.59 in 10.0 mi WNW 4.6 mph - N/A   Clear
5:35 AM -0.6 °F - -6.7 °F 75% 30.58 in 10.0 mi Calm Calm - N/A   Clear
5:55 AM -1.3 °F -9.3 °F -7.2 °F 76% 30.58 in 10.0 mi West 3.5 mph - N/A   Clear
6:15 AM -1.7 °F - -7.8 °F 75% 30.57 in 10.0 mi Calm Calm - N/A   Clear
6:35 AM -2.2 °F -12.5 °F -8.5 °F 75% 30.57 in 10.0 mi West 4.6 mph - N/A   Clear
6:55 AM -2.2 °F -12.5 °F -8.5 °F 75% 30.57 in 10.0 mi West 4.6 mph - N/A   Clear
7:15 AM -1.7 °F - -7.8 °F 75% 30.57 in 10.0 mi Calm Calm - N/A   Clear
7:35 AM -1.3 °F -9.3 °F -7.4 °F 75% 30.57 in 10.0 mi West 3.5 mph - N/A   Clear
7:55 AM 0.5 °F - -5.6 °F 75% 30.56 in 10.0 mi Calm Calm - N/A   Clear
8:15 AM 2.3 °F - -4.0 °F 75% 30.55 in 10.0 mi Calm Calm - N/A   Clear
8:35 AM 4.1 °F -3.2 °F -2.6 °F 74% 30.56 in 10.0 mi West 3.5 mph - N/A   Clear
8:55 AM 5.9 °F - -1.5 °F 72% 30.57 in 10.0 mi Calm Calm - N/A   Clear
9:15 AM 7.9 °F - -0.0 °F 70% 30.56 in 10.0 mi Calm Calm - N/A   Clear
9:35 AM 9.5 °F - 0.7 °F 67% 30.56 in 10.0 mi Calm Calm - N/A   Clear
9:55 AM 10.0 °F - 0.3 °F 65% 30.56 in 10.0 mi Calm Calm - N/A   Clear
10:15 AM 11.8 °F 3.9 °F -0.6 °F 58% 30.55 in 10.0 mi SW 4.6 mph - N/A   Clear
10:35 AM 12.7 °F 6.7 °F -2.9 °F 50% 30.55 in 10.0 mi SSW 3.5 mph - N/A   Clear
10:55 AM 13.5 °F 4.4 °F -0.9 °F 53% 30.54 in 10.0 mi SW 5.8 mph - N/A   Clear
11:15 AM 14.0 °F 2.9 °F -1.7 °F 50% 30.52 in 10.0 mi South 8.1 mph - N/A   Clear
11:35 AM 14.2 °F 2.2 °F -2.4 °F 48% 30.51 in 10.0 mi South 9.2 mph - N/A   Clear
11:55 AM 14.9 °F 2.3 °F -1.3 °F 49% 30.49 in 10.0 mi South 10.4 mph - N/A   Clear
12:15 PM 15.1 °F 1.8 °F -2.6 °F 46% 30.48 in 10.0 mi SSW 11.5 mph - N/A   Clear
12:35 PM 15.3 °F 2.0 °F -0.9 °F 49% 30.46 in 10.0 mi South 11.5 mph - N/A   Clear
12:55 PM 15.8 °F 2.1 °F -0.2 °F 49% 30.45 in 10.0 mi South 12.7 mph - N/A   Clear
1:15 PM 15.6 °F 1.8 °F 0.3 °F 51% 30.44 in 10.0 mi South 12.7 mph 17.3 mph N/A   Clear
1:35 PM 15.8 °F 1.4 °F -0.0 °F 50% 30.43 in 10.0 mi South 13.8 mph - N/A   Clear
1:55 PM 15.8 °F 1.4 °F -0.2 °F 49% 30.42 in 10.0 mi South 13.8 mph 18.4 mph N/A   Clear
2:15 PM 16.3 °F 3.4 °F -0.9 °F 47% 30.41 in 10.0 mi South 11.5 mph - N/A   Clear
2:35 PM 16.3 °F 4.1 °F -0.2 °F 48% 30.39 in 10.0 mi South 10.4 mph - N/A   Clear
2:55 PM 15.8 °F 2.1 °F -0.4 °F 49% 30.38 in 10.0 mi SSE 12.7 mph 17.3 mph N/A   Clear
3:15 PM 16.3 °F 1.0 °F -0.0 °F 49% 30.36 in 10.0 mi SSE 16.1 mph - N/A   Clear
3:35 PM 15.3 °F 0.2 °F 0.7 °F 53% 30.35 in 10.0 mi SSE 15.0 mph - N/A   Clear
3:55 PM 16.0 °F 1.1 °F 1.9 °F 54% 30.34 in 10.0 mi SSE 15.0 mph 20.7 mph N/A   Clear
4:15 PM 15.6 °F 1.2 °F 0.9 °F 52% 30.33 in 10.0 mi SSE 13.8 mph - N/A   Clear
4:35 PM 15.3 °F 1.4 °F 1.2 °F 54% 30.33 in 10.0 mi SSE 12.7 mph - N/A   Clear
4:55 PM 15.4 °F 1.0 °F 1.2 °F 54% 30.32 in 10.0 mi SSE 13.8 mph - N/A   Clear
5:15 PM 14.9 °F -0.8 °F 2.3 °F 57% 30.30 in 10.0 mi SSE 16.1 mph - N/A   Clear
5:35 PM 15.3 °F 0.2 °F 3.0 °F 58% 30.28 in 10.0 mi SE 15.0 mph 20.7 mph N/A   Clear
5:55 PM 14.7 °F -1.1 °F 2.3 °F 58% 30.26 in 10.0 mi SSE 16.1 mph - N/A   Clear
6:15 PM 14.9 °F -1.3 °F 3.0 °F 59% 30.24 in 10.0 mi SE 17.3 mph - N/A   Clear
6:35 PM 15.3 °F -0.4 °F 3.4 °F 59% 30.22 in 10.0 mi SE 16.1 mph 20.7 mph N/A   Clear
6:55 PM 15.6 °F -0.9 °F 3.7 °F 59% 30.20 in 10.0 mi SE 18.4 mph - N/A   Clear
7:15 PM 16.3 °F -1.2 °F 4.1 °F 59% 30.19 in 10.0 mi SSE 21.9 mph 25.3 mph N/A   Clear
7:35 PM 16.3 °F 1.0 °F 3.9 °F 58% 30.20 in 10.0 mi SSE 16.1 mph - N/A   Clear
7:55 PM 16.0 °F 2.9 °F 3.9 °F 59% 30.20 in 10.0 mi SSE 11.5 mph - N/A   Clear
8:15 PM 16.0 °F 1.1 °F 4.1 °F 60% 30.19 in 10.0 mi SSE 15.0 mph - N/A   Clear
8:35 PM 15.3 °F 2.8 °F 4.1 °F 61% 30.19 in 10.0 mi South 10.4 mph - N/A   Clear
8:55 PM 15.4 °F 3.0 °F 4.5 °F 62% 30.20 in 10.0 mi South 10.4 mph - N/A   Clear
9:15 PM 15.8 °F 2.1 °F 4.8 °F 62% 30.18 in 10.0 mi SSE 12.7 mph - N/A   Clear
9:35 PM 16.5 °F 2.4 °F 5.5 °F 62% 30.19 in 10.0 mi SSE 13.8 mph - N/A   Clear
9:55 PM 16.7 °F 1.5 °F 5.5 °F 62% 30.16 in 10.0 mi SSE 16.1 mph 21.9 mph N/A   Clear
10:15 PM 16.3 °F 0.1 °F 5.0 °F 61% 30.15 in 10.0 mi SSE 18.4 mph - N/A   Clear
10:35 PM 16.3 °F 1.0 °F 5.0 °F 61% 30.14 in 10.0 mi SSE 16.1 mph 20.7 mph N/A   Clear
10:55 PM 16.3 °F 0.5 °F 5.0 °F 61% 30.13 in 10.0 mi SSE 17.3 mph 23.0 mph N/A   Clear
11:15 PM 16.2 °F 0.8 °F 5.0 °F 62% 30.13 in 10.0 mi SSE 16.1 mph 21.9 mph N/A   Clear
11:55 PM 15.8 °F -0.2 °F 5.5 °F 64% 30.10 in 10.0 mi SSE 17.3 mph - N/A   Clear